CZ-3B DEB, 40185

Orbit data source: Space-Track

CZ-3B DEB, 40185 is space debris in HEO originally from a launch on Mon, 19 Dec 2011 UTC launched from the Xichang Space Center, China (XSC). Debris objects in space refer to the collection of defunct objects orbiting the Earth. Examples of debris include non-operational satellites, rocket bodies, and fragments generated from explosions, collisions, or faulty payload assembly.

Loading next visibility...
CZ-3B DEB details
Identifier
40185, 2011-077J
Orbit
HEO
Last TLE update17 hours ago
Origin
Flag of CNCASC (CN / PRC)
ManufacturerCALT
MissionSpacecraft
Bus & MotorUnknown
MassUnknown
Launch date (UTC)
2011-12-19 (13 years ago)
Launch vehicleUnknown
Launch site
Xichang Space Center, China (XSC)
Object type
Payload
Rocket body
Debris
Shape & HBRUnknown
Radar Cross SectionMedium (>0.1 m² and <1 m²)

Expand to show TLE details & history

TLE from 17 hours ago
0 CZ-3B DEB
1 40185U 11077J   24361.22167356  .00000583  00000-0  57475-2 0  9998
2 40185  25.7738  34.5415 7473735 357.3649   0.4440  1.92327077 74952
Epoch: 2024-12-26T05:19Z
Definitive object data (Epoch: 2024-12-26T05:19:12.595Z)
Latitude0.00159°
Longitude-140.4559°
Altitude541.178 km
Speed10.031 km/s
True Right ascension02h 18m 12s
True Declination0° 00' 06"
Sunlit
Object was in full shadow at TLE epoch
Visualization TLE readout
Latitude7.30921°
Longitude23.97004°
Altitude37,086.006 km
Speed1.936 km/s
Apparent Right ascension12h 54m 24s
Apparent Declination1° 49' 19"
Sunlit
Object is in daylight
Visualization observer readout
Local Sidereal Time21:12:17
Azimuth295.179° NW
Elevation-24.424°
Doppler factor1
Orbital elements
Apogee altitude41,355.39 km
Perigee altitude522.937 km
Semi-major axis27,317.301 km
Eccentricity0.7473735
Inclination25.7738°
RAAN34.5415°
Arg. of periapsis357.3649°
True anomaly4.61801°
Mean anomaly0.444°
Eccentric anomaly1.75672°
Mean motion0.48071 °/min
BSTAR0.0057475
Orbital period748.89 mins
Loading maneuver chart data...
Loading historical data...
Loading historical data...
Loading historical data...
Loading historical data...
Loading historical data...
Loading historical data...
Loading historical data...

CZ-3B DEB Visibility forecast

Observer location: undefined°, undefined

Span
Click to sort rows by Start time (UTC) header in descending order
Start Az.
Max El. time (UTC)
Max El. Az.
Max El.
End time (UTC)
End Az.
677 mins2024-12-27 06:26:14.240Z210.117° SW2024-12-27 06:35:14.240Z139.808° SSE34.045°2024-12-27 17:43:14.240Z170.076° S
|